Home   Weather   Dammam   Past weeks

Flag for Saudi Arabia Past Weather in Dammam, Saudi Arabia — Yesterday and Last 2 Weeks

Now
48 °F

Clear.


Feels Like: 45 °F
Forecast: 51 / 67 °F
Wind: 8 mph from Northwest

Location: Dhahran

Current Time: Jan 22, 2018 at 1:37:54 am

Latest Report: Jan 22, 2018 at 1:00 am


Visibility: 5 mi

Pressure: 30.09 "Hg

Humidity: 76%

Dew Point: 41 °F

Location of DammamLocation

Past Weather in Dammam — Graph

°F

Dammam Temperature Yesterday

Maximum temperature yesterday: 66 °F (at 1:00 pm)
Minimum temperature yesterday: 46 °F (at 7:00 am)
Average temperature yesterday: 57 °F

High & Low Weather Summary for the Past Weeks

 TemperatureHumidityPressure
High81 °F (Jan 14, 2:00 pm)88% (Jan 10, 3:00 am)30.27 "Hg (Jan 10, 3:00 am)
Low45 °F (Jan 12, 6:00 am)6% (Jan 14, 3:00 pm)29.92 "Hg (Jan 7, 12:00 am)
Average62 °F50%30.06 "Hg
* Reported Jan 7 12:00 am — Jan 22 12:00 am, Dammam. Weather by CustomWeather, © 2018

Note: Actual official high and low records may vary slightly from our data, if they occured in-between our weather recording intervals... More about our weather records

Advertising

Dammam Weather History for the Previous 24 Hours

Scroll right to see more
 ConditionsComfort  
Time TempWeatherWind HumidityBarometerVisibility
12:00 am
Mon, Jan 22
50 °FClear.8 mph76%30.09 "Hg5 mi
11:00 pm
Sun, Jan 21
52 °FClear.7 mph72%30.12 "Hg5 mi
10:00 pm52 °FClear.7 mph72%30.12 "Hg5 mi
9:00 pm54 °FClear.7 mph67%30.15 "Hg5 mi
8:00 pm57 °FClear.7 mph63%30.15 "Hg4 mi
7:00 pm59 °FClear.12 mph59%30.12 "Hg5 mi
6:00 pm61 °FClear.16 mph55%30.12 "Hg4 mi
5:00 pm63 °FClear.15 mph45%30.12 "Hg4 mi
4:00 pm64 °FSunny.14 mph40%30.09 "Hg4 mi
3:00 pm66 °FSunny.13 mph40%30.07 "Hg2 mi
2:00 pm66 °FSunny.14 mph40%30.09 "Hg1 mi
1:00 pm66 °FSunny.17 mph37%30.09 "Hg1 mi
12:00 pm64 °FSunny.17 mph46%30.12 "Hg1 mi
11:00 am61 °FSunny.20 mph39%30.15 "Hg1 mi
10:00 am57 °FSunny.21 mph41%30.18 "Hg1 mi
9:00 am55 °FSunny.17 mph44%30.18 "Hg3 mi
8:00 am50 °FSunny.16 mph43%30.18 "Hg10 mi
7:00 am46 °FSunny.14 mph50%30.15 "Hg10 mi
6:00 am48 °FClear.13 mph46%30.12 "Hg10 mi
1:00 am52 °FClear.9 mph41%30.09 "Hg10 mi
Weather by CustomWeather, © 2018

See weather overview